User: anonymous   Login
Location: Kuppenheim
(48.8299°N, 8.2568°E)
Time: 04:07:11
(UTC+00:00)
Language:

Meteor 2-14 Rocket - Orbit

View from above orbital plane
View from above orbital plane
View from above satellite
View from above satellite

Ground track
Ground track

The orbit data is extracted from the following two-line orbital elements,

1 16736U 86039B   21261.40555678  .00000012  00000-0 -24356-5 0  9990
2 16736  82.5371 230.1372 0014082  56.5588 303.6917 13.84760420784532
Epoch (UTC): 18 September 2021 09:44:00
Eccentricity: 0.0014082
inclination: 82.5371°
perigee height: 937 km
apogee height: 957 km
right ascension of ascending node: 230.1372°
argument of perigee: 56.5588°
revolutions per day: 13.84760420
mean anomaly at epoch: 303.6917°
orbit number at epoch: 78453

The dashed part of the orbit path shows where the satellite is in the earth's shadow,  

DLR